Location: Charbonni�res
(45.9952°N, 2.9982°E)
Time: 17:21:37
(UTC+00:00)

CENTAUR R/B - Pass Details

Date: 29 November 2020
Orbit: 750 x 1438 km, 63.4° (Epoch: 11 January)

Event Time Altitude Azimuth Distance (km) Brightness Sun altitude
Exits shadow 04:01:37 73° 254° (WSW) 1,441 3.0 -31.6°
Maximum altitude 04:01:56 73° 236° (WSW) 1,440 3.1 -31.5°
Drops below altitude 10° 04:10:44 10° 154° (SSE) 3,539 5.7 -30.0°
Sets 04:13:43 0° 153° (SSE) 4,512 6.3 -29.5°
